This is the latest recevied weather packets stored in our database for station/object ZL1KPB-13. If no packets are shown the sender has not sent any weather packets the latest 10 day(s).
| Time | Temp. | Humidity | Pressure | Rain* | Wind** | Luminosity | Snow |
|---|---|---|---|---|---|---|---|
| 1777583434 | 13.33° C | 54% | 1039.8 hPa | 0 mm | - | - | - |
| 1777581624 | 12.78° C | 60% | 1039.6 hPa | 0 mm | - | - | - |
| 1777580476 | 9.44° C | 71% | 1039.3 hPa | 0 mm | - | - | - |
| 1777579872 | 8.89° C | 71% | 1039 hPa | 0 mm | - | - | - |
| 1777573233 | 7.22° C | 75% | 1038 hPa | 0 mm | - | - | - |
| 1777572628 | 7.22° C | 75% | 1037.8 hPa | 0 mm | - | - | - |
| 1777572047 | 7.22° C | 75% | 1037.9 hPa | 0 mm | - | - | - |
| 1777570276 | 7.22° C | 73% | 1037.8 hPa | 0 mm | - | - | - |
| 1777569069 | 7.22° C | 72% | 1038 hPa | 0 mm | - | - | - |
| 1777566051 | 7.78° C | 67% | 1038 hPa | 0 mm | - | - | - |
| 1777564844 | 7.78° C | 67% | 1038.2 hPa | 0 mm | - | - | - |
| 1777561827 | 8.33° C | 65% | 1038.5 hPa | 0 mm | - | - | - |
| 1777556454 | 8.89° C | 65% | 1039.2 hPa | 0 mm | - | - | - |
| 1777555247 | 8.89° C | 65% | 1039.3 hPa | 0 mm | - | - | - |
| 1777552229 | 9.44° C | 64% | 1039.2 hPa | 0 mm | - | - | - |
| 1777549837 | 9.44° C | 68% | 1039.1 hPa | 0 mm | - | - | - |
| 1777548670 | 9.44° C | 69% | 1039.2 hPa | 0 mm | - | - | - |
| 1777547462 | 9.44° C | 69% | 1039 hPa | 0 mm | - | - | - |
| 1777538514 | 11.11° C | 67% | 1038 hPa | 0 mm | - | - | - |
| 1777535476 | 11.11° C | 71% | 1037.9 hPa | 0 mm | - | - | - |
| 1777534247 | 11.11° C | 72% | 1038 hPa | 0 mm | - | - | - |
| 1777531836 | 11.11° C | 72% | 1037.6 hPa | 0 mm | - | - | - |
| 1777528817 | 12.22° C | 70% | 1037.1 hPa | 0 mm | - | - | - |
| 1777528273 | 12.22° C | 68% | 1037 hPa | 0 mm | - | - | - |
| 1777527670 | 12.78° C | 64% | 1036.9 hPa | 0 mm | - | - | - |
* Rain latest hour (hover to see other rain measurements)
** Current wind speed in m/s (hover to see current wind gust speed)